MIDAS 4 DEB, 195

Orbit data source: Space-Track

MIDAS 4 DEB, 195 is space debris in LEO originally from a launch on Sat, 21 Oct 1961 UTC launched from the Air Force Western Test Range (AFWTR). Debris objects in space refer to the collection of defunct objects orbiting the Earth. Examples of debris include non-operational satellites, rocket bodies, and fragments generated from explosions, collisions, or faulty payload assembly.

Loading next visibility...
Identifier
195, 1961-028D
Orbit
LEO
Last TLE update
1 day ago
Origin
Manufacturer
Unknown
Mission
Spacecraft
Bus & Motor
Unknown
Mass
~10 kg wet, ~10 kg dry
Launch date (UTC)
1961-10-21 (64 years ago)
Launch vehicle
Unknown
Launch site
Air Force Western Test Range (AFWTR)
Object type
Payload
Rocket body
Debris
Shape & HBR
Unknown
Radar Cross Section
Medium (>0.1 m² and <1 m²)

Expand to show TLE details & history

TLE from 1 day ago
0 MIDAS 4 DEB
1 00195U 61028D   25170.28081801  .00000029  00000-0  15083-1 0  9994
2 00195  95.8561 128.4211 0129037  63.9698 297.4376  8.65620878 11621
Epoch: 2025-06-19T06:44Z
TLE epoch observation values (Epoch: 2025-06-19T06:44:22.676Z)
Latitude
-0.00003°
Longitude
119.57586°
Altitude
3,585.351 km
Speed
6.344 km/s
True Right ascension
08h 33m 41s
True Declination
0° 00' 00"
Sunlit
Object was in daylight at epoch
Visualization orbit readout
Latitude
69.11524°
Longitude
-44.64543°
Altitude
3,564.822 km
Speed
6.365 km/s
Apparent Right ascension
11h 41m 46s
Apparent Declination
73° 52' 04"
Sunlit
Object is in daylight
Visualization observer readout
Local Sidereal Time
22:13:25
Azimuth
353.393° N
Elevation
24.767°
Doppler factor
1
Orbital elements
Apogee altitude
3,768.594 km
Perigee altitude
3,510.069 km
Semi-major axis
10,017.469 km
Eccentricity
0.0129
Inclination
95.8561°
RAAN
128.4211°
Arg. of periapsis
63.9698°
True anomaly
Unknown
Mean anomaly
297.4376°
Eccentric anomaly
Unknown
Mean motion
2.16474 °/min
Orbital period
166.3 mins
BSTAR
0.015083
Loading maneuver chart data...
Loading SW <> Apogee altitude chart data...
Loading historical data...
Loading historical data...
Loading historical data...
Loading historical data...
Loading historical data...
Loading historical data...
Loading historical data...

MIDAS 4 DEB Visibility forecast

Observer location: undefined°, undefined°

Span
Click to sort rows by Start time (UTC) header in descending order
Start Az.
Max El. time (UTC)
Max El. Az.
Max El.
End time (UTC)
End Az.
27 mins2025-06-20 11:18:12.252Z353.379° N2025-06-20 11:29:12.252Z296.396° NW36.623°2025-06-20 11:45:12.252Z231.304° WSW
7 mins2025-06-20 14:02:12.252Z342.498° N2025-06-20 14:05:12.252Z332.046° NNW11.376°2025-06-20 14:09:12.252Z318.235° NNW
27 mins2025-06-20 18:57:12.252Z108.917° ESE2025-06-20 19:10:12.252Z55.665° ENE29.657°2025-06-20 19:24:12.252Z0.298° NNE
34 mins2025-06-20 21:35:12.252Z179.219° S2025-06-20 21:52:12.252Z271.97° WNW43.584°2025-06-20 22:09:12.252Z348.399° N
13 mins2025-06-21 00:34:12.252Z270.955° WNW2025-06-21 00:40:12.252Z292.414° WNW13.018°2025-06-21 00:47:12.252Z317.329° NNW
21 mins2025-06-21 06:46:12.252Z36.686° NE2025-06-21 06:56:12.252Z73.536° E17.746°2025-06-21 07:07:12.252Z112.4° ESE
35 mins2025-06-21 09:26:12.252Z10.295° NNE2025-06-21 09:43:12.252Z98.583° ESE44.795°2025-06-21 10:01:12.252Z189.616° SSW
|